| time (UTC) | temp F | wind direction | speed knots | gust knots | rain 1hr in | rain 24hr in | rain mn in | humidity % | barometer mb |
| 20260507212703 | 48 | 107 | 1.7 | 1.7 | 0.00 | 0.00 | 0.00 | 73 | 1011.5 |
| 20260507211803 | 49 | 96 | 0.9 | 1.7 | 0.00 | 0.00 | 0.00 | 72 | 1011.5 |
| 20260507210903 | 49 | 107 | 1.7 | 1.7 | 0.00 | 0.00 | 0.00 | 71 | 1011.5 |
| 20260507210004 | 48 | 96 | 1.7 | 1.7 | 0.00 | 0.00 | 0.00 | 70 | 1011.4 |
| 20260507205403 | 48 | 82 | 1.7 | 1.7 | 0.00 | 0.00 | 0.00 | 70 | 1011.5 |
| 20260507204503 | 49 | 71 | 1.7 | 1.7 | 0.00 | 0.00 | 0.00 | 70 | 1011.3 |
| 20260507203603 | 49 | 72 | 0.9 | 1.7 | 0.00 | 0.00 | 0.00 | 69 | 1011.3 |
| 20260507202703 | 49 | 75 | 1.7 | 1.7 | 0.00 | 0.00 | 0.00 | 69 | 1011.3 |
| 20260507201803 | 49 | 102 | 0.9 | 1.7 | 0.00 | 0.00 | 0.00 | 69 | 1011.3 |
| 20260507200903 | 49 | 105 | 0.9 | 1.7 | 0.00 | 0.00 | 0.00 | 70 | 1011.1 |
| 20260507200216 | 49 | 105 | 0.9 | 1.7 | 0.00 | 0.00 | 0.00 | 70 | 1011.1 |
| 20260507195618 | 49 | 97 | 1.7 | 1.7 | 0.00 | 0.00 | 0.00 | 70 | 1011.1 |
| 20260507194503 | 49 | 96 | 1.7 | 1.7 | 0.00 | 0.00 | 0.00 | 70 | 1011.0 |
| 20260507193603 | 49 | 91 | 0.9 | 1.7 | 0.00 | 0.00 | 0.00 | 71 | 1010.8 |
| 20260507192918 | 49 | 80 | 0.9 | 1.7 | 0.00 | 0.00 | 0.00 | 71 | 1010.5 |
| 20260507192017 | 49 | 62 | 0.9 | 1.7 | 0.00 | 0.00 | 0.00 | 71 | 1010.4 |
| 20260507190903 | 48 | 58 | 1.7 | 2.6 | 0.00 | 0.00 | 0.00 | 72 | 1010.1 |
| 20260507190004 | 49 | 82 | 1.7 | 2.6 | 0.00 | 0.00 | 0.00 | 72 | 1010.1 |
| 20260507185403 | 49 | 75 | 1.7 | 2.6 | 0.00 | 0.00 | 0.00 | 73 | 1010.0 |
| 20260507184503 | 49 | 47 | 2.6 | 2.6 | 0.00 | 0.00 | 0.00 | 75 | 1010.0 |
| 20260507183603 | 49 | 53 | 2.6 | 2.6 | 0.00 | 0.02 | 0.00 | 75 | 1009.8 |
| 20260507182703 | 51 | 41 | 1.7 | 2.6 | 0.00 | 0.02 | 0.00 | 74 | 1009.7 |
| 20260507181803 | 51 | 68 | 1.7 | 2.6 | 0.00 | 0.10 | 0.00 | 75 | 1009.8 |
| 20260507181118 | 52 | 70 | 0.0 | 1.7 | 0.00 | 0.12 | 0.00 | 74 | 1009.8 |
| 20260507180004 | 52 | 0 | 0.0 | 0.0 | 0.00 | 0.12 | 0.00 | 73 | 1009.7 |
| 20260507175403 | 53 | 0 | 0.0 | 0.0 | 0.00 | 0.12 | 0.00 | 72 | 1009.7 |
| 20260507174503 | 54 | 0 | 0.0 | 0.0 | 0.00 | 0.12 | 0.00 | 71 | 1009.6 |
| 20260507173603 | 55 | 0 | 0.0 | 0.0 | 0.00 | 0.12 | 0.00 | 71 | 1009.6 |
| 20260507172703 | 54 | 261 | 0.0 | 1.7 | 0.00 | 0.12 | 0.00 | 71 | 1009.6 |
| 20260507171803 | 55 | 274 | 0.9 | 2.6 | 0.00 | 0.17 | 0.00 | 70 | 1009.7 |
| 20260507170903 | 55 | 283 | 0.9 | 1.7 | 0.00 | 0.22 | 0.00 | 69 | 1009.7 |
| 20260507170003 | 55 | 295 | 0.9 | 4.3 | 0.00 | 0.24 | 0.00 | 69 | 1009.8 |
| 20260507165617 | 55 | 286 | 0.9 | 4.3 | 0.00 | 0.24 | 0.00 | 69 | 1010.0 |
| 20260507164718 | 55 | 276 | 0.9 | 3.5 | 0.00 | 0.24 | 0.00 | 70 | 1009.9 |
| 20260507163603 | 55 | 271 | 0.9 | 3.5 | 0.00 | 0.24 | 0.00 | 71 | 1009.9 |
| 20260507162703 | 55 | 243 | 3.5 | 7.0 | 0.00 | 0.24 | 0.00 | 70 | 1010.0 |
| 20260507161803 | 55 | 233 | 3.5 | 7.8 | 0.00 | 0.24 | 0.00 | 70 | 1010.0 |
| 20260507160903 | 55 | 233 | 4.3 | 8.7 | 0.00 | 0.24 | 0.00 | 71 | 1009.9 |
| 20260507160003 | 56 | 222 | 4.3 | 9.6 | 0.00 | 0.24 | 0.00 | 70 | 1009.8 |
| 20260507155403 | 56 | 229 | 4.3 | 10.4 | 0.00 | 0.24 | 0.00 | 69 | 1009.7 |
| 20260507154503 | 56 | 225 | 7.0 | 12.2 | 0.00 | 0.24 | 0.00 | 63 | 1009.6 |
| 20260507153603 | 57 | 227 | 7.0 | 10.4 | 0.00 | 0.24 | 0.00 | 61 | 1009.6 |
| 20260507152916 | 57 | 220 | 7.0 | 13.0 | 0.00 | 0.24 | 0.00 | 62 | 1009.5 |
| 20260507151803 | 58 | 210 | 7.0 | 11.3 | 0.00 | 0.24 | 0.00 | 60 | 1009.5 |
| 20260507150903 | 59 | 215 | 7.8 | 13.0 | 0.00 | 0.24 | 0.00 | 58 | 1009.0 |
| 20260507150003 | 60 | 244 | 7.0 | 13.0 | 0.00 | 0.24 | 0.00 | 57 | 1008.7 |
| 20260507145403 | 61 | 246 | 7.8 | 15.6 | 0.00 | 0.24 | 0.00 | 55 | 1008.6 |
| 20260507144503 | 62 | 224 | 8.7 | 15.6 | 0.00 | 0.26 | 0.00 | 54 | 1008.5 |
| 20260507143817 | 62 | 225 | 7.0 | 15.6 | 0.00 | 0.26 | 0.00 | 55 | 1008.4 |
| 20260507142703 | 62 | 218 | 6.1 | 13.9 | 0.00 | 0.26 | 0.00 | 56 | 1008.4 |
| 20260507142017 | 61 | 207 | 6.1 | 13.9 | 0.00 | 0.26 | 0.00 | 56 | 1008.4 |
| 20260507141117 | 61 | 208 | 5.2 | 13.0 | 0.00 | 0.28 | 0.00 | 55 | 1008.5 |
| 20260507140003 | 61 | 208 | 7.0 | 14.8 | 0.00 | 0.33 | 0.00 | 55 | 1008.5 |
| 20260507135403 | 61 | 201 | 5.2 | 10.4 | 0.00 | 0.33 | 0.00 | 57 | 1008.5 |
| 20260507134503 | 62 | 212 | 7.0 | 13.0 | 0.00 | 0.33 | 0.00 | 56 | 1008.7 |
| 20260507133603 | 62 | 223 | 5.2 | 12.2 | 0.00 | 0.33 | 0.00 | 57 | 1008.6 |
| 20260507132918 | 62 | 210 | 5.2 | 9.6 | 0.00 | 0.33 | 0.00 | 56 | 1008.5 |
| 20260507131803 | 61 | 231 | 8.7 | 15.6 | 0.00 | 0.33 | 0.00 | 56 | 1008.9 |
| 20260507131116 | 62 | 208 | 6.1 | 15.6 | 0.00 | 0.33 | 0.00 | 57 | 1008.8 |
| 20260507130003 | 62 | 225 | 5.2 | 12.2 | 0.00 | 0.33 | 0.00 | 55 | 1008.8 |
| 20260507125403 | 62 | 201 | 5.2 | 13.0 | 0.00 | 0.33 | 0.00 | 57 | 1008.9 |
| 20260507124716 | 62 | 223 | 6.1 | 13.0 | 0.00 | 0.35 | 0.00 | 56 | 1008.9 |
| 20260507123604 | 62 | 233 | 7.8 | 13.9 | 0.00 | 0.37 | 0.00 | 59 | 1009.0 |
| 20260507122705 | 61 | 239 | 5.2 | 13.0 | 0.00 | 0.39 | 0.00 | 60 | 1008.7 |
| 20260507122016 | 62 | 219 | 5.2 | 13.0 | 0.00 | 0.39 | 0.00 | 60 | 1008.8 |
| 20260507120903 | 61 | 209 | 6.1 | 10.4 | 0.00 | 0.39 | 0.00 | 59 | 1008.9 |
| 20260507120004 | 61 | 223 | 5.2 | 13.0 | 0.00 | 0.41 | 0.00 | 62 | 1008.8 |
| 20260507115403 | 61 | 229 | 6.1 | 13.0 | 0.00 | 0.43 | 0.00 | 60 | 1008.8 |
| 20260507114503 | 61 | 210 | 5.2 | 10.4 | 0.00 | 0.43 | 0.00 | 63 | 1008.8 |
| 20260507113603 | 61 | 214 | 6.1 | 13.0 | 0.00 | 0.43 | 0.00 | 67 | 1008.9 |
| 20260507112703 | 60 | 186 | 6.1 | 12.2 | 0.00 | 0.45 | 0.00 | 67 | 1009.0 |
| 20260507111803 | 61 | 200 | 5.2 | 10.4 | 0.00 | 0.45 | 0.00 | 67 | 1009.1 |
| 20260507110903 | 60 | 220 | 7.0 | 13.0 | 0.00 | 0.45 | 0.00 | 65 | 1009.0 |
| 20260507110003 | 61 | 234 | 6.1 | 12.2 | 0.00 | 0.45 | 0.00 | 67 | 1009.1 |
| 20260507105403 | 60 | 218 | 6.1 | 11.3 | 0.00 | 0.45 | 0.00 | 67 | 1009.1 |
| 20260507104718 | 60 | 203 | 5.2 | 12.2 | 0.00 | 0.45 | 0.00 | 70 | 1009.0 |
| 20260507103603 | 60 | 193 | 6.1 | 11.3 | 0.00 | 0.45 | 0.00 | 65 | 1009.1 |
| 20260507102703 | 60 | 209 | 7.0 | 11.3 | 0.00 | 0.45 | 0.00 | 71 | 1009.2 |
| 20260507101803 | 60 | 211 | 6.1 | 11.3 | 0.00 | 0.47 | 0.00 | 71 | 1009.2 |
| 20260507101117 | 60 | 214 | 6.1 | 11.3 | 0.00 | 0.47 | 0.00 | 71 | 1009.1 |
| 20260507100003 | 58 | 206 | 7.0 | 11.3 | 0.00 | 0.51 | 0.00 | 73 | 1009.1 |
| 20260507095403 | 58 | 211 | 7.0 | 13.0 | 0.00 | 0.53 | 0.00 | 71 | 1009.1 |
| 20260507094503 | 58 | 214 | 7.0 | 13.9 | 0.00 | 0.53 | 0.00 | 76 | 1009.1 |
| 20260507093604 | 58 | 215 | 6.1 | 14.8 | 0.00 | 0.53 | 0.00 | 74 | 1009.1 |
| 20260507092703 | 57 | 206 | 7.0 | 12.2 | 0.00 | 0.53 | 0.00 | 76 | 1009.1 |
| 20260507091803 | 58 | 203 | 7.0 | 13.9 | 0.00 | 0.53 | 0.00 | 76 | 1009.1 |
| 20260507090903 | 56 | 215 | 4.3 | 8.7 | 0.00 | 0.53 | 0.00 | 78 | 1009.1 |
| 20260507090004 | 56 | 228 | 5.2 | 9.6 | 0.00 | 0.53 | 0.00 | 76 | 1009.1 |
| 20260507085403 | 56 | 222 | 6.1 | 10.4 | 0.00 | 0.53 | 0.00 | 77 | 1009.0 |
| 20260507084503 | 57 | 208 | 6.1 | 9.6 | 0.00 | 0.55 | 0.00 | 74 | 1008.9 |
| 20260507083603 | 58 | 217 | 5.2 | 9.6 | 0.00 | 0.57 | 0.00 | 77 | 1009.0 |
| 20260507082703 | 56 | 217 | 6.1 | 13.0 | 0.00 | 0.59 | 0.00 | 75 | 1008.8 |
| 20260507081803 | 57 | 222 | 6.1 | 9.6 | 0.00 | 0.61 | 0.00 | 74 | 1008.7 |
| 20260507080903 | 57 | 227 | 5.2 | 9.6 | 0.00 | 0.63 | 0.00 | 77 | 1008.7 |
| 20260507080218 | 57 | 209 | 4.3 | 9.6 | 0.00 | 0.65 | 0.00 | 75 | 1008.7 |
| 20260507075617 | 57 | 212 | 5.2 | 9.6 | 0.00 | 0.67 | 0.00 | 75 | 1008.6 |
| 20260507074503 | 56 | 214 | 6.1 | 12.2 | 0.00 | 0.69 | 0.00 | 77 | 1008.5 |
| 20260507073818 | 56 | 236 | 4.3 | 11.3 | 0.00 | 0.69 | 0.00 | 80 | 1008.6 |
| 20260507072703 | 56 | 246 | 2.6 | 5.2 | 0.00 | 0.71 | 0.00 | 83 | 1008.4 |
| 20260507071803 | 56 | 243 | 2.6 | 4.3 | 0.00 | 0.74 | 0.00 | 82 | 1008.5 |
| 20260507070903 | 55 | 242 | 3.5 | 7.8 | 0.00 | 0.74 | 0.00 | 83 | 1008.4 |
| 20260507070004 | 55 | 217 | 6.1 | 9.6 | 0.00 | 0.81 | 0.00 | 81 | 1008.3 |
| 20260507065403 | 54 | 203 | 5.2 | 9.6 | 0.00 | 0.88 | 0.00 | 81 | 1008.3 |
| 20260507064503 | 54 | 148 | 4.3 | 10.4 | 0.00 | 0.92 | 0.00 | 82 | 1008.1 |
| 20260507063818 | 55 | 153 | 3.5 | 10.4 | 0.00 | 0.96 | 0.00 | 83 | 1008.1 |
| 20260507062703 | 54 | 155 | 4.3 | 9.6 | 0.00 | 1.02 | 0.00 | 82 | 1008.1 |
| 20260507061803 | 54 | 157 | 3.5 | 6.1 | 0.00 | 1.08 | 0.00 | 84 | 1008.0 |
| 20260507060903 | 53 | 146 | 3.5 | 7.0 | 0.00 | 1.16 | 0.00 | 85 | 1008.0 |
| 20260507060004 | 53 | 149 | 4.3 | 7.0 | 0.00 | 1.18 | 0.00 | 85 | 1008.1 |
| 20260507055403 | 53 | 151 | 2.6 | 6.1 | 0.00 | 1.18 | 0.00 | 85 | 1008.0 |
| 20260507054503 | 53 | 182 | 1.7 | 6.1 | 0.00 | 1.18 | 0.00 | 86 | 1008.0 |
| 20260507053603 | 52 | 186 | 1.7 | 6.1 | 0.00 | 1.18 | 0.00 | 87 | 1008.0 |
| 20260507052703 | 51 | 123 | 1.7 | 3.5 | 0.00 | 1.18 | 0.00 | 88 | 1007.8 |
| 20260507051803 | 51 | 97 | 1.7 | 4.3 | 0.00 | 1.18 | 0.00 | 88 | 1007.5 |
| 20260507050903 | 50 | 145 | 3.5 | 7.8 | 0.00 | 1.18 | 0.00 | 88 | 1007.5 |
| 20260507050217 | 50 | 143 | 3.5 | 7.8 | 0.00 | 1.18 | 0.00 | 88 | 1007.4 |
| 20260507045618 | 50 | 133 | 2.6 | 5.2 | 0.00 | 1.18 | 0.00 | 88 | 1007.3 |
| 20260507044503 | 50 | 170 | 0.9 | 3.5 | 0.00 | 1.18 | 0.00 | 88 | 1007.5 |
| 20260507043603 | 50 | 154 | 0.9 | 3.5 | 0.00 | 1.18 | 0.00 | 88 | 1007.3 |
| 20260507042916 | 50 | 144 | 1.7 | 5.2 | 0.00 | 1.18 | 0.00 | 88 | 1007.4 |
| 20260507041803 | 50 | 135 | 4.3 | 7.0 | 0.00 | 1.18 | 0.00 | 88 | 1007.1 |
| 20260507040903 | 50 | 139 | 2.6 | 5.2 | 0.00 | 1.18 | 0.00 | 87 | 1007.3 |
| 20260507040003 | 51 | 136 | 2.6 | 7.0 | 0.00 | 1.18 | 0.00 | 87 | 1007.3 |
| 20260507035403 | 51 | 140 | 2.6 | 5.2 | 0.00 | 1.18 | 0.00 | 87 | 1007.2 |
| 20260507034503 | 51 | 149 | 2.6 | 6.1 | 0.00 | 1.18 | 0.00 | 87 | 1007.3 |
| 20260507033816 | 51 | 157 | 2.6 | 7.8 | 0.00 | 1.18 | 0.00 | 87 | 1007.4 |
| 20260507032703 | 51 | 147 | 1.7 | 5.2 | 0.00 | 1.18 | 0.00 | 86 | 1007.3 |
| 20260507032017 | 51 | 168 | 2.6 | 7.0 | 0.00 | 1.18 | 0.00 | 86 | 1007.2 |
| 20260507031116 | 51 | 167 | 4.3 | 7.8 | 0.00 | 1.18 | 0.00 | 87 | 1007.3 |
| 20260507030003 | 51 | 176 | 4.3 | 10.4 | 0.00 | 1.18 | 0.00 | 86 | 1007.1 |
| 20260507025403 | 51 | 168 | 4.3 | 8.7 | 0.00 | 1.18 | 0.00 | 87 | 1007.2 |
| 20260507024503 | 51 | 163 | 4.3 | 8.7 | 0.00 | 1.18 | 0.00 | 86 | 1007.1 |
| 20260507023603 | 51 | 183 | 5.2 | 10.4 | 0.00 | 1.18 | 0.00 | 86 | 1007.1 |
| 20260507022703 | 51 | 176 | 5.2 | 12.2 | 0.00 | 1.18 | 0.00 | 86 | 1007.2 |
| 20260507021803 | 52 | 174 | 5.2 | 10.4 | 0.00 | 1.20 | 0.00 | 86 | 1007.1 |
| 20260507020903 | 52 | 193 | 5.2 | 11.3 | 0.00 | 1.20 | 0.00 | 87 | 1007.1 |
| 20260507020217 | 52 | 213 | 4.3 | 11.3 | 0.00 | 1.20 | 0.00 | 87 | 1007.1 |
| 20260507015403 | 52 | 194 | 4.3 | 10.4 | 0.00 | 1.20 | 0.00 | 87 | 1007.1 |
| 20260507014503 | 52 | 191 | 4.3 | 14.8 | 0.00 | 1.20 | 0.00 | 87 | 1007.1 |
| 20260507013603 | 52 | 179 | 5.2 | 10.4 | 0.00 | 1.20 | 0.00 | 87 | 1007.1 |
| 20260507012703 | 52 | 183 | 5.2 | 11.3 | 0.00 | 1.20 | 0.00 | 87 | 1007.1 |
| 20260507011803 | 52 | 184 | 7.0 | 14.8 | 0.00 | 1.20 | 0.00 | 87 | 1007.1 |
| 20260507010903 | 52 | 173 | 7.0 | 13.9 | 0.00 | 1.22 | 0.00 | 87 | 1007.0 |
| 20260507010003 | 52 | 182 | 6.1 | 13.9 | 0.00 | 1.24 | 0.00 | 87 | 1006.8 |
| 20260507005403 | 52 | 187 | 7.0 | 13.0 | 0.00 | 1.28 | 0.00 | 87 | 1007.0 |
| 20260507004503 | 52 | 189 | 7.0 | 15.6 | 0.00 | 1.39 | 0.00 | 87 | 1006.9 |
| 20260507003603 | 52 | 184 | 7.0 | 15.6 | 0.00 | 1.49 | 0.00 | 87 | 1007.0 |
| 20260507002917 | 52 | 182 | 7.0 | 13.0 | 0.00 | 1.51 | 0.00 | 87 | 1007.2 |
| 20260507002018 | 52 | 167 | 7.0 | 13.9 | 0.00 | 1.51 | 0.00 | 87 | 1007.1 |
| 20260507000903 | 52 | 187 | 7.0 | 15.6 | 0.00 | 1.53 | 0.00 | 87 | 1007.2 |
| 20260507000004 | 52 | 176 | 7.0 | 12.2 | 0.00 | 1.53 | 0.00 | 87 | 1007.2 |
| 20260506235404 | 52 | 182 | 7.8 | 15.6 | 0.00 | 1.55 | 0.00 | 88 | 1007.3 |
| 20260506234503 | 52 | 178 | 7.8 | 16.5 | 0.00 | 1.65 | 0.00 | 88 | 1007.2 |
| 20260506233603 | 52 | 176 | 8.7 | 14.8 | 0.00 | 1.69 | 0.00 | 88 | 1007.3 |
| 20260506232703 | 52 | 178 | 7.8 | 15.6 | 0.00 | 1.71 | 0.00 | 89 | 1007.4 |
| 20260506231803 | 52 | 188 | 6.1 | 13.9 | 0.00 | 1.71 | 0.00 | 89 | 1007.4 |
| 20260506230903 | 52 | 191 | 9.6 | 17.4 | 0.00 | 1.71 | 0.00 | 89 | 1007.4 |
| 20260506230003 | 52 | 186 | 8.7 | 16.5 | 0.00 | 1.71 | 0.00 | 89 | 1007.3 |
| 20260506225403 | 52 | 175 | 8.7 | 16.5 | 0.00 | 1.71 | 0.00 | 89 | 1007.3 |
| 20260506224503 | 52 | 198 | 7.8 | 16.5 | 0.00 | 1.71 | 0.00 | 89 | 1007.3 |
| 20260506223603 | 52 | 183 | 9.6 | 16.5 | 0.00 | 1.71 | 0.00 | 89 | 1007.4 |
| 20260506222703 | 52 | 199 | 9.6 | 16.5 | 0.00 | 1.71 | 0.00 | 89 | 1007.1 |
| 20260506221803 | 52 | 192 | 8.7 | 17.4 | 0.00 | 1.71 | 0.00 | 90 | 1007.3 |
| 20260506220903 | 52 | 189 | 9.6 | 15.6 | 0.00 | 1.71 | 0.00 | 90 | 1007.2 |
| 20260506220003 | 52 | 204 | 8.7 | 15.6 | 0.00 | 1.71 | 0.00 | 90 | 1007.3 |
| 20260506215403 | 52 | 212 | 8.7 | 15.6 | 0.00 | 1.71 | 1.71 | 90 | 1007.2 |
| 20260506214503 | 51 | 212 | 7.0 | 13.0 | 0.00 | 1.71 | 1.71 | 90 | 1007.3 |
| 20260506213816 | 51 | 208 | 7.0 | 12.2 | 0.00 | 1.71 | 1.71 | 90 | 1007.3 |